Time,TemperatureF,DewpointF,PressureIn,WindDirection,WindDirectionDegrees,WindSpeedMPH,WindSpeedGustMPH,Humidity,HourlyPrecipIn,Conditions,Clouds,dailyrainin,SolarRadiationWatts/m^2,SoftwareType,DateUTC
2013-02-19 00:01:00,28.0,24.0,-100.00,WNW,297,3.0,5.0,86,0.00,,,0.00,0.000000,,2013-02-19 08:01:00,
2013-02-19 00:11:00,28.0,24.0,-100.00,WNW,297,3.0,5.0,86,0.00,,,0.00,0.000000,,2013-02-19 08:11:00,
2013-02-19 00:21:00,28.0,24.0,-100.00,WNW,297,3.0,5.0,86,0.00,,,0.00,0.000000,,2013-02-19 08:21:00,
2013-02-19 00:30:00,25.0,22.0,-100.00,WNW,289,4.0,5.0,88,0.00,,,0.00,0.000000,,2013-02-19 08:30:00,
2013-02-19 00:52:00,25.0,22.0,-100.00,WNW,289,4.0,5.0,88,0.00,,,0.00,0.000000,,2013-02-19 08:52:00,
2013-02-19 01:01:00,25.0,22.0,-100.00,WNW,289,4.0,5.0,88,0.00,,,0.00,0.000000,,2013-02-19 09:01:00,
2013-02-19 01:30:00,28.0,25.0,-100.00,West,280,4.0,6.0,90,0.00,,,0.00,0.000000,,2013-02-19 09:30:00,
2013-02-19 01:53:00,28.0,25.0,-100.00,West,280,4.0,6.0,90,0.00,,,0.00,0.000000,,2013-02-19 09:53:00,
2013-02-19 02:01:00,28.0,25.0,-100.00,West,280,4.0,6.0,90,0.00,,,0.00,0.000000,,2013-02-19 10:01:00,
2013-02-19 02:11:00,28.0,25.0,-100.00,West,280,4.0,6.0,90,0.00,,,0.00,0.000000,,2013-02-19 10:11:00,
2013-02-19 02:21:00,28.0,25.0,-100.00,West,280,4.0,6.0,90,0.00,,,0.00,0.000000,,2013-02-19 10:21:00,
2013-02-19 02:30:00,28.0,25.0,-100.00,WNW,292,3.0,6.0,88,0.00,,,0.00,0.000000,,2013-02-19 10:30:00,
2013-02-19 02:52:00,28.0,25.0,-100.00,WNW,292,3.0,6.0,88,0.00,,,0.00,0.000000,,2013-02-19 10:52:00,
2013-02-19 03:01:00,28.0,25.0,-100.00,WNW,292,3.0,6.0,88,0.00,,,0.00,0.000000,,2013-02-19 11:01:00,
2013-02-19 03:11:00,28.0,25.0,-100.00,WNW,292,3.0,6.0,88,0.00,,,0.00,0.000000,,2013-02-19 11:11:00,
2013-02-19 03:21:00,28.0,25.0,-100.00,WNW,292,3.0,6.0,88,0.00,,,0.00,0.000000,,2013-02-19 11:21:00,
2013-02-19 03:30:00,27.0,24.0,-100.00,WNW,286,5.0,6.0,88,0.00,,,0.00,0.000000,,2013-02-19 11:30:00,
2013-02-19 03:52:00,27.0,24.0,-100.00,WNW,286,5.0,6.0,88,0.00,,,0.00,0.000000,,2013-02-19 11:52:00,
2013-02-19 04:01:00,27.0,24.0,-100.00,WNW,286,5.0,6.0,88,0.00,,,0.00,0.000000,,2013-02-19 12:01:00,
2013-02-19 04:12:00,27.0,24.0,-100.00,WNW,286,5.0,6.0,88,0.00,,,0.00,0.000000,,2013-02-19 12:12:00,
2013-02-19 04:21:00,27.0,24.0,-100.00,WNW,286,5.0,6.0,88,0.00,,,0.00,0.000000,,2013-02-19 12:21:00,
2013-02-19 04:30:00,28.0,25.0,-100.00,WSW,244,3.0,9.0,87,0.00,,,0.00,0.000000,,2013-02-19 12:30:00,
2013-02-19 04:52:00,28.0,25.0,-100.00,WSW,244,3.0,9.0,87,0.00,,,0.00,0.000000,,2013-02-19 12:52:00,
2013-02-19 05:02:00,28.0,25.0,-100.00,WSW,244,3.0,9.0,87,0.00,,,0.00,0.000000,,2013-02-19 13:02:00,
2013-02-19 05:11:00,28.0,25.0,-100.00,WSW,244,3.0,9.0,87,0.00,,,0.00,0.000000,,2013-02-19 13:11:00,
2013-02-19 05:22:00,28.0,25.0,-100.00,WSW,244,3.0,9.0,87,0.00,,,0.00,0.000000,,2013-02-19 13:22:00,
2013-02-19 05:30:00,28.0,25.0,-100.00,WSW,251,7.0,9.0,90,0.00,,,0.00,0.000000,,2013-02-19 13:30:00,
2013-02-19 05:52:00,28.0,25.0,-100.00,WSW,251,7.0,9.0,90,0.00,,,0.00,0.000000,,2013-02-19 13:52:00,
2013-02-19 06:01:00,28.0,25.0,-100.00,WSW,251,7.0,9.0,90,0.00,,,0.00,0.000000,,2013-02-19 14:01:00,
2013-02-19 06:11:00,28.0,25.0,-100.00,WSW,251,7.0,9.0,90,0.00,,,0.00,0.000000,,2013-02-19 14:11:00,
2013-02-19 06:21:00,28.0,25.0,-100.00,WSW,251,7.0,9.0,90,0.00,,,0.00,0.000000,,2013-02-19 14:21:00,
2013-02-19 06:30:00,29.0,26.0,-100.00,West,261,6.0,9.0,90,0.00,,,0.00,0.000000,,2013-02-19 14:30:00,
2013-02-19 06:52:00,29.0,26.0,-100.00,West,261,6.0,9.0,90,0.00,,,0.00,0.000000,,2013-02-19 14:52:00,
2013-02-19 07:01:00,29.0,26.0,-100.00,West,261,6.0,9.0,90,0.00,,,0.00,0.000000,,2013-02-19 15:01:00,
2013-02-19 07:11:00,29.0,26.0,-100.00,West,261,6.0,9.0,90,0.00,,,0.00,0.000000,,2013-02-19 15:11:00,
2013-02-19 07:21:00,29.0,26.0,-100.00,West,261,6.0,9.0,90,0.00,,,0.00,0.000000,,2013-02-19 15:21:00,
2013-02-19 07:30:00,32.0,29.0,-100.00,WSW,258,3.0,7.0,89,0.00,,,0.00,3.000000,,2013-02-19 15:30:00,
2013-02-19 07:52:00,32.0,29.0,-100.00,WSW,258,3.0,7.0,89,0.00,,,0.00,3.000000,,2013-02-19 15:52:00,
2013-02-19 08:01:00,32.0,29.0,-100.00,WSW,258,3.0,7.0,89,0.00,,,0.00,3.000000,,2013-02-19 16:01:00,
2013-02-19 08:11:00,32.0,29.0,-100.00,WSW,258,3.0,7.0,89,0.00,,,0.00,3.000000,,2013-02-19 16:11:00,
2013-02-19 08:21:00,32.0,29.0,-100.00,WSW,258,3.0,7.0,89,0.00,,,0.00,3.000000,,2013-02-19 16:21:00,
2013-02-19 08:30:00,38.0,32.0,-100.00,West,276,6.0,8.0,80,0.00,,,0.00,32.000000,,2013-02-19 16:30:00,
2013-02-19 08:52:00,38.0,32.0,-100.00,West,276,6.0,8.0,80,0.00,,,0.00,32.000000,,2013-02-19 16:52:00,
2013-02-19 09:01:00,38.0,32.0,-100.00,West,276,6.0,8.0,80,0.00,,,0.00,32.000000,,2013-02-19 17:01:00,
2013-02-19 09:11:00,38.0,32.0,-100.00,West,276,6.0,8.0,80,0.00,,,0.00,32.000000,,2013-02-19 17:11:00,
2013-02-19 09:21:00,38.0,32.0,-100.00,West,276,6.0,8.0,80,0.00,,,0.00,32.000000,,2013-02-19 17:21:00,
2013-02-19 09:30:00,40.0,29.0,-100.00,West,275,10.0,12.0,65,0.00,,,0.00,119.000000,,2013-02-19 17:30:00,
2013-02-19 09:52:00,40.0,29.0,-100.00,West,275,10.0,12.0,65,0.00,,,0.00,119.000000,,2013-02-19 17:52:00,
2013-02-19 10:01:00,40.0,29.0,-100.00,West,275,10.0,12.0,65,0.00,,,0.00,119.000000,,2013-02-19 18:01:00,
2013-02-19 10:11:00,40.0,29.0,-100.00,West,275,10.0,12.0,65,0.00,,,0.00,119.000000,,2013-02-19 18:11:00,
2013-02-19 10:21:00,40.0,29.0,-100.00,West,275,10.0,12.0,65,0.00,,,0.00,119.000000,,2013-02-19 18:21:00,
2013-02-19 10:30:00,43.0,30.0,-100.00,NW,322,7.0,13.0,59,0.00,,,0.00,272.000000,,2013-02-19 18:30:00,
2013-02-19 10:52:00,43.0,30.0,-100.00,NW,322,7.0,13.0,59,0.00,,,0.00,272.000000,,2013-02-19 18:52:00,
2013-02-19 11:01:00,43.0,30.0,-100.00,NW,322,7.0,13.0,59,0.00,,,0.00,272.000000,,2013-02-19 19:01:00,
2013-02-19 11:11:00,43.0,30.0,-100.00,NW,322,7.0,13.0,59,0.00,,,0.00,272.000000,,2013-02-19 19:11:00,
2013-02-19 11:21:00,43.0,30.0,-100.00,NW,322,7.0,13.0,59,0.00,,,0.00,272.000000,,2013-02-19 19:21:00,
2013-02-19 11:30:00,46.0,27.0,-100.00,WNW,289,8.0,12.0,47,0.00,,,0.00,425.000000,,2013-02-19 19:30:00,
2013-02-19 11:52:00,46.0,27.0,-100.00,WNW,289,8.0,12.0,47,0.00,,,0.00,425.000000,,2013-02-19 19:52:00,
2013-02-19 12:01:00,46.0,27.0,-100.00,WNW,289,8.0,12.0,47,0.00,,,0.00,425.000000,,2013-02-19 20:01:00,
2013-02-19 12:11:00,46.0,27.0,-100.00,WNW,289,8.0,12.0,47,0.00,,,0.00,425.000000,,2013-02-19 20:11:00,
2013-02-19 12:21:00,46.0,27.0,-100.00,WNW,289,8.0,12.0,47,0.00,,,0.00,425.000000,,2013-02-19 20:21:00,
2013-02-19 12:30:00,46.0,27.0,-100.00,NNW,332,8.0,16.0,47,0.00,,,0.00,414.000000,,2013-02-19 20:30:00,
2013-02-19 12:52:00,46.0,27.0,-100.00,NNW,332,8.0,16.0,47,0.00,,,0.00,414.000000,,2013-02-19 20:52:00,
2013-02-19 13:01:00,46.0,27.0,-100.00,NNW,332,8.0,16.0,47,0.00,,,0.00,414.000000,,2013-02-19 21:01:00,
2013-02-19 13:11:00,46.0,27.0,-100.00,NNW,332,8.0,16.0,47,0.00,,,0.00,414.000000,,2013-02-19 21:11:00,
2013-02-19 13:21:00,46.0,27.0,-100.00,NNW,332,8.0,16.0,47,0.00,,,0.00,414.000000,,2013-02-19 21:21:00,
2013-02-19 13:30:00,48.0,27.0,-100.00,NNW,337,10.0,17.0,43,0.00,,,0.00,444.000000,,2013-02-19 21:30:00,
2013-02-19 13:52:00,48.0,27.0,-100.00,NNW,337,10.0,17.0,43,0.00,,,0.00,444.000000,,2013-02-19 21:52:00,
2013-02-19 14:01:00,48.0,27.0,-100.00,NNW,337,10.0,17.0,43,0.00,,,0.00,444.000000,,2013-02-19 22:01:00,
2013-02-19 14:11:00,48.0,27.0,-100.00,NNW,337,10.0,17.0,43,0.00,,,0.00,444.000000,,2013-02-19 22:11:00,
2013-02-19 14:21:00,48.0,27.0,-100.00,NNW,337,10.0,17.0,43,0.00,,,0.00,444.000000,,2013-02-19 22:21:00,
2013-02-19 14:30:00,48.0,26.0,-100.00,NNW,338,7.0,13.0,42,0.00,,,0.00,331.000000,,2013-02-19 22:30:00,
2013-02-19 14:52:00,48.0,26.0,-100.00,NNW,338,7.0,13.0,42,0.00,,,0.00,331.000000,,2013-02-19 22:52:00,
2013-02-19 15:01:00,48.0,26.0,-100.00,NNW,338,7.0,13.0,42,0.00,,,0.00,331.000000,,2013-02-19 23:01:00,
2013-02-19 15:11:00,48.0,26.0,-100.00,NNW,338,7.0,13.0,42,0.00,,,0.00,331.000000,,2013-02-19 23:11:00,
2013-02-19 15:21:00,48.0,26.0,-100.00,NNW,338,7.0,13.0,42,0.00,,,0.00,331.000000,,2013-02-19 23:21:00,
2013-02-19 15:30:00,49.0,25.0,-100.00,North,351,9.0,12.0,39,0.00,,,0.00,275.000000,,2013-02-19 23:30:00,
2013-02-19 15:52:00,49.0,25.0,-100.00,North,351,9.0,12.0,39,0.00,,,0.00,275.000000,,2013-02-19 23:52:00,
2013-02-19 16:01:00,49.0,25.0,-100.00,North,351,9.0,12.0,39,0.00,,,0.00,275.000000,,2013-02-20 00:01:00,
2013-02-19 16:11:00,49.0,25.0,-100.00,North,351,9.0,12.0,39,0.00,,,0.00,275.000000,,2013-02-20 00:11:00,
2013-02-19 16:21:00,49.0,25.0,-100.00,North,351,9.0,12.0,39,0.00,,,0.00,275.000000,,2013-02-20 00:21:00,
2013-02-19 16:30:00,46.0,25.0,-100.00,NW,324,6.0,11.0,43,0.00,,,0.00,87.000000,,2013-02-20 00:30:00,
2013-02-19 16:52:00,46.0,25.0,-100.00,NW,324,6.0,11.0,43,0.00,,,0.00,87.000000,,2013-02-20 00:52:00,
2013-02-19 17:02:00,46.0,25.0,-100.00,NW,324,6.0,11.0,43,0.00,,,0.00,87.000000,,2013-02-20 01:02:00,
2013-02-19 17:11:00,46.0,25.0,-100.00,NW,324,6.0,11.0,43,0.00,,,0.00,87.000000,,2013-02-20 01:11:00,
2013-02-19 17:21:00,46.0,25.0,-100.00,NW,324,6.0,11.0,43,0.00,,,0.00,87.000000,,2013-02-20 01:21:00,
2013-02-19 17:30:00,42.0,27.0,-100.00,NNW,343,4.0,5.0,54,0.00,,,0.00,17.000000,,2013-02-20 01:30:00,
2013-02-19 17:52:00,42.0,27.0,-100.00,NNW,343,4.0,5.0,54,0.00,,,0.00,17.000000,,2013-02-20 01:52:00,
2013-02-19 18:01:00,42.0,27.0,-100.00,NNW,343,4.0,5.0,54,0.00,,,0.00,17.000000,,2013-02-20 02:01:00,
2013-02-19 18:11:00,42.0,27.0,-100.00,NNW,343,4.0,5.0,54,0.00,,,0.00,17.000000,,2013-02-20 02:11:00,
2013-02-19 18:21:00,42.0,27.0,-100.00,NNW,343,4.0,5.0,54,0.00,,,0.00,17.000000,,2013-02-20 02:21:00,
2013-02-19 18:30:00,38.0,27.0,-100.00,WNW,298,3.0,10.0,63,0.00,,,0.00,0.000000,,2013-02-20 02:30:00,
2013-02-19 18:52:00,38.0,27.0,-100.00,WNW,298,3.0,10.0,63,0.00,,,0.00,0.000000,,2013-02-20 02:52:00,
2013-02-19 19:01:00,38.0,27.0,-100.00,WNW,298,3.0,10.0,63,0.00,,,0.00,0.000000,,2013-02-20 03:01:00,
2013-02-19 19:12:00,38.0,27.0,-100.00,WNW,298,3.0,10.0,63,0.00,,,0.00,0.000000,,2013-02-20 03:12:00,
2013-02-19 19:21:00,38.0,27.0,-100.00,WNW,298,3.0,10.0,63,0.00,,,0.00,0.000000,,2013-02-20 03:21:00,
2013-02-19 19:30:00,39.0,29.0,-100.00,WSW,255,3.0,5.0,67,0.00,,,0.00,0.000000,,2013-02-20 03:30:00,
2013-02-19 19:52:00,39.0,29.0,-100.00,WSW,255,3.0,5.0,67,0.00,,,0.00,0.000000,,2013-02-20 03:52:00,
2013-02-19 20:01:00,39.0,29.0,-100.00,WSW,255,3.0,5.0,67,0.00,,,0.00,0.000000,,2013-02-20 04:01:00,
2013-02-19 20:11:00,39.0,29.0,-100.00,WSW,255,3.0,5.0,67,0.00,,,0.00,0.000000,,2013-02-20 04:11:00,
2013-02-19 20:21:00,39.0,29.0,-100.00,WSW,255,3.0,5.0,67,0.00,,,0.00,0.000000,,2013-02-20 04:21:00,
2013-02-19 20:30:00,40.0,30.0,-100.00,NNE,15,4.0,6.0,67,0.00,,,0.00,0.000000,,2013-02-20 04:30:00,
2013-02-19 20:52:00,40.0,30.0,-100.00,NNE,15,4.0,6.0,67,0.00,,,0.00,0.000000,,2013-02-20 04:52:00,
2013-02-19 21:02:00,40.0,30.0,-100.00,NNE,15,4.0,6.0,67,0.00,,,0.00,0.000000,,2013-02-20 05:02:00,
2013-02-19 21:12:00,40.0,30.0,-100.00,NNE,15,4.0,6.0,67,0.00,,,0.00,0.000000,,2013-02-20 05:12:00,
2013-02-19 21:22:00,40.0,30.0,-100.00,NNE,15,4.0,6.0,67,0.00,,,0.00,0.000000,,2013-02-20 05:22:00,
2013-02-19 21:30:00,37.0,30.0,-100.00,WNW,283,3.0,6.0,76,0.00,,,-99.99,0.000000,,2013-02-20 05:30:00,
2013-02-19 21:52:00,37.0,30.0,-100.00,WNW,283,3.0,6.0,76,0.00,,,-99.99,0.000000,,2013-02-20 05:52:00,
2013-02-19 22:01:00,37.0,30.0,-100.00,WNW,283,3.0,6.0,76,0.00,,,-99.99,0.000000,,2013-02-20 06:01:00,
2013-02-19 22:11:00,37.0,30.0,-100.00,WNW,283,3.0,6.0,76,0.00,,,-99.99,0.000000,,2013-02-20 06:11:00,
2013-02-19 22:21:00,37.0,30.0,-100.00,WNW,283,3.0,6.0,76,0.00,,,-99.99,0.000000,,2013-02-20 06:21:00,
2013-02-19 22:30:00,31.0,25.0,-100.00,WSW,239,4.0,6.0,77,0.00,,,0.00,0.000000,,2013-02-20 06:30:00,
2013-02-19 22:52:00,31.0,25.0,-100.00,WSW,239,4.0,6.0,77,0.00,,,0.00,0.000000,,2013-02-20 06:52:00,
2013-02-19 23:01:00,31.0,25.0,-100.00,WSW,239,4.0,6.0,77,0.00,,,0.00,0.000000,,2013-02-20 07:01:00,
2013-02-19 23:11:00,31.0,25.0,-100.00,WSW,239,4.0,6.0,77,0.00,,,0.00,0.000000,,2013-02-20 07:11:00,
2013-02-19 23:21:00,31.0,25.0,-100.00,WSW,239,4.0,6.0,77,0.00,,,0.00,0.000000,,2013-02-20 07:21:00,
2013-02-19 23:30:00,37.0,30.0,-100.00,SSW,195,3.0,5.0,77,0.00,,,0.00,0.000000,,2013-02-20 07:30:00,
2013-02-19 23:52:00,37.0,30.0,-100.00,SSW,195,3.0,5.0,77,0.00,,,0.00,0.000000,,2013-02-20 07:52:00,